sat.trackr.live / text

‹ back to catalog

GHGSAT-C3

NORAD 52737 · 2022-057F

PAYLOAD ACTIVE UNKNOWN

§ Identity

Operator
Country
CA
Launch date
2022-05-25
Launch site
AFETR
Launch vehicle
Mass (kg)
RCS (m²)

External: N2YO · Heavens-Above · Gunter

§ Orbital elements

Epoch: 2026-05-25T03:36:23.688288Z

Period
93.87 min
Inclination
97.6566°
Eccentricity
0.0006020
Mean motion
15.34014833 rev/d
Perigee alt
459.7 km
Apogee alt
468.0 km
Semi-major
6,842.0 km
B*
1.8809e-4
RAAN
289.9532°
Arg perigee
189.7448°
Mean anomaly
170.3679°
Rev number
22,200

§ Raw data

GHGSAT-C31 52737U 22057F   26145.15027417  .00006108  00000+0  18809-3 0  99982 52737  97.6566 289.9532 0006020 189.7448 170.3679 15.34014833222003

JSON: /api/v1/satellites/52737 · /tle

For live sub-satellite position, see the globe view (requires WebGL).

§ Visibility from observer

Set your observer location to see the next 7 days of passes ≥ 10°. The values pass through the URL so the page stays shareable.

No JS? Fill the form by hand. The geolocation button needs JavaScript.